This is the latest recevied weather packets stored in our database for station/object KD7JB. If no packets are shown the sender has not sent any weather packets the latest 10 day(s).
| Time | Temp. | Humidity | Pressure | Rain* | Wind** | Luminosity | Snow |
|---|---|---|---|---|---|---|---|
| 1777820217 | 16.67° C | 43% | 1178.3 hPa | 0 mm | - | 232 W/m² | - |
| 1777817491 | 15.56° C | 45% | 1178.3 hPa | 0 mm | - | 107 W/m² | - |
| 1777816885 | 15.56° C | 45% | 1178.2 hPa | 0 mm | - | 86 W/m² | - |
| 1777816581 | 15° C | 45% | 1178.3 hPa | 0 mm | - | 72 W/m² | - |
| 1777816278 | 15° C | 46% | 1178.1 hPa | 0 mm | - | 44 W/m² | - |
| 1777815370 | 14.44° C | 46% | 1178.1 hPa | 0 mm | - | 40 W/m² | - |
| 1777815067 | 13.89° C | 47% | 1178.2 hPa | 0 mm | - | 33 W/m² | - |
| 1777814460 | 13.89° C | 46% | 1178.2 hPa | 0 mm | - | 25 W/m² | - |
| 1777813854 | 13.33° C | 47% | 1178 hPa | 0 mm | - | 17 W/m² | - |
| 1777813551 | 13.33° C | 48% | 1178.1 hPa | 0 mm | - | 13 W/m² | - |
| 1777812340 | 13.33° C | 48% | 1177.9 hPa | 0 mm | - | 4 W/m² | - |
| 1777811737 | 13.89° C | 48% | 1178 hPa | 0 mm | - | 2 W/m² | - |
| 1777810827 | 13.89° C | 48% | 1178.1 hPa | 0 mm | - | 0 W/m² | - |
| 1777810523 | 13.89° C | 49% | 1178.1 hPa | 0 mm | - | 0 W/m² | - |
| 1777809615 | 13.89° C | 49% | 1178.3 hPa | 0 mm | - | 0 W/m² | - |
| 1777809312 | 13.89° C | 50% | 1178.3 hPa | 0 mm | - | 0 W/m² | - |
| 1777806282 | 13.89° C | 49% | 1178.4 hPa | 0 mm | - | 0 W/m² | - |
| 1777804768 | 13.89° C | 48% | 1178.4 hPa | 0 mm | - | 0 W/m² | - |
| 1777804163 | 13.89° C | 49% | 1178.2 hPa | 0 mm | - | 0 W/m² | - |
| 1777802044 | 13.33° C | 50% | 1178.2 hPa | 0 mm | - | 0 W/m² | - |
| 1777801134 | 13.89° C | 49% | 1178.5 hPa | 0 mm | - | 0 W/m² | - |
| 1777800831 | 13.89° C | 49% | 1178.5 hPa | 0 mm | - | 0 W/m² | - |
| 1777800531 | 13.89° C | 50% | 1178.5 hPa | 0 mm | - | 0 W/m² | - |
| 1777800228 | 13.89° C | 50% | 1178.4 hPa | 0 mm | - | 0 W/m² | - |
| 1777799924 | 13.89° C | 50% | 1178.4 hPa | 0 mm | - | 0 W/m² | - |
* Rain latest hour (hover to see other rain measurements)
** Current wind speed in m/s (hover to see current wind gust speed)